Location: Crescent
(42.8242°N, 73.7329°W)
Time: 05:23:34
(UTC+00:00)

Explorer 7 - Pass Details

Date: 24 February 2026
Orbit: 430 x 542 km, 50.2° (Epoch: 5 March)

Event Time Altitude Azimuth Distance (km) Brightness Sun altitude
Rises 23:57:23 0° 296° (WNW) 2,513 11.4 -15.5°
Reaches altitude 10° 23:59:35 10° 288° (WNW) 1,654 10.5 -15.9°
Maximum altitude 00:03:05 39° 219° (SW) 756 7.8 -16.5°
Enters shadow 00:05:52 15° 155° (SSE) 1,403 8.6 -17.0°
Drops below altitude 10° 00:06:42 10° 150° (SSE) 1,710 - -17.2°
Sets 00:09:02 0° 142° (SE) 2,612 - -17.6°
